RH
86 82 76 71 69 67 64 59 54 49 44 43 43 42 39 33 28 24 24 24 27 35 43 51 54 56 57 54 53 50 45 38 31 29 26 57 98 99 80 55 59 95 102 98 103 100 102 102 100 101 99 100 102 99 100 101 100 105 105 97 91 72 55 59 70 75 63 46 40 41 60 89 99 98 97 97 90 83 92 96 88 78 69 62 57
85 80 74 72 72 68 63 56 50 46 44 45 45 43 38 31 27 24 25 27 32 43 53 58 61 64 63 59 58 55 53 44 33 32 25 44 87 101 96 73 56 81 102 99 101 103 100 100 100 100 100 100 101 100 100 99 100 104 103 101 101 85 67 62 62 68 60 44 42 40 48 68 79 83 85 84 77 79 95 99 91 81 72 67 64
83 78 74 74 72 66 60 54 49 47 47 47 45 41 36 30 27 27 27 31 40 51 60 67 71 72 68 63 60 58 57 48 35 32 27 48 90 101 101 85 50 58 94 103 102 103 100 99 100 99 100 100 100 100 99 99 101 102 101 103 97 79 70 68 66 67 54 39 42 43 45 54 62 69 72 72 78 92 102 100 97 91 81 75 70
80 79 77 75 70 65 60 54 51 50 49 46 43 41 35 31 30 30 32 35 44 56 66 76 78 76 73 67 64 60 58 49 38 32 28 55 99 102 99 97 59 36 68 101 103 101 102 100 100 100 99 99 100 100 100 100 100 101 101 101 95 80 70 64 62 55 44 40 40 39 48 53 55 65 74 80 89 99 102 100 102 99 89 78 68
82 81 80 76 70 66 61 56 53 50 47 45 43 41 35 33 34 33 37 42 50 60 67 72 72 70 68 66 64 61 58 50 41 36 27 44 89 104 97 103 80 32 36 86 104 99 102 101 100 101 98 99 100 100 101 99 99 101 101 99 95 86 76 69 58 44 47 58 54 56 73 74 74 85 94 98 98 99 101 102 103 98 86 73 69
86 83 81 77 71 67 62 58 53 48 47 46 45 40 34 34 36 37 42 48 55 60 63 65 66 64 61 59 58 56 54 49 41 38 31 31 61 96 101 101 91 44 19 64 101 100 100 101 100 100 98 99 100 100 101 99 99 101 101 101 100 93 81 64 49 53 76 87 76 73 75 75 88 99 103 104 98 98 103 102 99 91 78 72 76
88 84 82 77 71 67 64 58 52 48 48 48 43 37 35 38 41 44 48 52 57 58 60 62 63 63 59 54 53 53 52 48 41 38 35 30 36 68 97 103 96 58 19 44 91 103 99 100 100 100 100 100 100 100 100 99 99 101 101 101 102 97 79 55 47 72 100 98 84 70 52 54 76 89 98 103 100 101 101 96 91 82 75 80 86
87 85 82 77 72 68 65 58 52 50 50 47 40 36 39 46 50 51 53 57 60 60 60 60 60 61 57 51 47 48 48 45 42 39 37 35 31 43 74 98 101 72 28 31 79 103 100 99 101 100 101 99 100 100 100 101 100 101 101 100 103 89 68 64 73 91 104 98 90 73 48 46 67 88 101 101 99 98 93 89 84 78 82 92 94
87 86 83 78 73 70 65 59 53 52 49 43 37 37 44 54 59 59 61 65 67 66 64 62 62 58 51 46 42 41 43 41 40 41 39 38 37 37 52 78 94 78 41 28 63 97 101 100 101 101 101 100 101 101 99 101 100 101 101 100 101 79 63 83 97 98 101 100 99 85 63 58 70 92 101 96 94 87 79 78 76 80 92 98 99
88 88 86 78 73 69 65 60 55 51 46 39 36 38 50 63 67 65 68 72 70 67 63 58 55 50 45 42 40 39 39 37 36 38 41 39 39 42 45 59 78 75 51 30 46 84 100 101 101 101 101 100 100 100 99 101 99 100 101 99 97 76 67 91 101 98 102 102 101 92 85 90 85 76 71 68 68 61 56 60 68 87 101 101 101
90 89 85 77 72 70 66 60 53 47 42 38 38 45 61 74 72 71 76 77 70 63 57 53 48 45 43 41 40 40 38 37 33 31 39 40 38 46 49 55 67 66 54 36 38 70 97 102 100 100 101 99 100 101 99 101 99 100 102 100 99 80 68 90 101 96 92 88 93 94 97 103 90 67 55 48 46 44 43 48 65 86 93 92 90
93 90 83 76 73 71 66 57 49 45 40 38 43 54 68 76 75 75 78 73 65 59 53 49 45 42 43 42 40 41 44 46 39 31 37 40 38 45 52 61 69 65 64 59 51 68 93 101 99 99 100 99 102 103 101 101 100 101 102 101 102 85 72 89 99 92 86 84 93 102 98 88 73 62 53 44 44 49 47 47 60 76 85 91 90
95 89 82 76 74 69 61 53 46 43 40 40 48 58 67 73 73 71 68 62 57 54 50 46 45 44 45 44 40 37 41 48 47 38 36 39 39 42 55 70 73 73 85 90 82 85 97 99 99 100 100 100 103 102 99 100 100 100 100 102 102 89 84 96 99 96 98 98 99 99 89 79 73 61 48 44 51 58 61 65 77 88 91 89 88
94 87 82 76 72 65 55 50 46 43 42 45 54 62 67 69 68 66 62 59 57 54 53 49 46 44 40 37 32 27 28 35 41 39 36 38 36 39 64 82 79 84 99 101 97 99 100 99 101 101 100 100 101 101 99 99 101 101 101 104 95 85 93 103 100 100 100 99 101 98 91 95 93 68 48 52 64 74 85 90 92 92 86 82 87
94 89 84 75 67 60 53 48 45 44 46 50 59 66 69 69 67 66 64 62 62 58 54 48 41 36 31 27 25 22 21 22 26 29 29 34 32 38 71 92 89 96 105 102 101 101 99 100 101 101 100 101 100 101 101 100 101 99 99 102 90 84 98 102 99 102 99 97 101 101 100 102 88 65 61 70 76 84 90 87 87 90 90 91 92
96 89 80 71 63 56 51 48 45 46 50 56 66 71 72 71 68 69 68 66 64 56 48 40 33 28 25 23 21 19 19 18 19 20 20 28 29 36 72 97 97 102 105 104 104 101 100 99 100 101 100 100 101 101 100 100 101 98 97 99 93 92 101 101 100 101 98 97 100 100 101 96 83 79 88 91 86 85 86 88 95 94 88 82 72
94 84 74 66 61 55 49 47 46 48 55 62 70 71 69 69 68 71 71 65 58 48 39 33 28 25 22 21 20 18 19 18 18 18 17 25 28 36 71 95 97 100 103 104 104 103 103 101 99 101 100 100 101 100 101 100 100 101 100 98 97 99 100 98 99 101 101 101 99 98 97 93 92 95 96 95 94 95 97 103 101 81 65 63 56
88 79 72 65 58 53 49 47 47 52 59 64 68 68 67 70 73 72 66 56 47 39 34 30 27 25 21 20 20 19 19 18 18 18 19 26 27 39 74 93 96 102 102 100 101 102 104 103 100 100 98 101 101 99 101 101 99 101 101 98 99 101 103 99 97 99 101 98 94 96 98 98 101 101 99 102 99 98 102 102 87 62 48 50 50
84 76 71 63 56 51 48 47 49 55 61 63 64 67 71 74 72 64 54 46 39 34 31 31 29 25 22 21 21 20 21 19 19 19 20 26 27 44 81 96 97 102 101 99 100 98 98 97 99 103 100 99 101 99 100 101 101 102 100 101 101 100 101 99 99 102 101 97 95 98 100 102 103 101 101 98 80 75 91 93 73 51 40 40 44
80 75 68 60 54 50 48 47 49 55 58 59 61 67 72 70 62 54 46 40 36 33 32 32 31 28 25 24 23 23 22 20 21 20 22 27 27 50 90 101 99 102 100 99 100 99 96 87 88 102 106 101 99 99 101 100 101 102 100 101 100 96 96 98 105 108 100 96 98 99 100 102 103 102 101 90 67 55 66 72 59 43 36 36 38
79 73 64 57 52 48 47 46 47 51 52 54 59 63 64 60 53 47 42 38 36 35 33 33 34 35 32 29 26 25 24 22 23 22 24 28 30 56 94 102 100 103 97 95 99 102 102 91 86 95 101 102 101 100 102 101 100 102 101 100 99 98 103 107 110 106 96 95 98 99 102 103 103 105 102 91 73 53 43 43 41 36 34 35 36
76 68 60 55 50 48 46 43 45 47 48 51 55 57 56 52 48 44 41 40 38 37 35 34 40 45 40 31 26 27 27 25 25 24 26 29 33 58 92 101 101 101 94 96 103 102 101 99 97 92 90 99 104 100 102 102 100 100 100 101 103 103 105 105 102 100 97 99 101 100 102 104 105 102 91 77 64 50 38 33 32 32 32 36 41
72 64 58 54 49 46 43 41 44 46 46 49 51 52 51 48 46 44 43 41 39 39 37 37 49 55 42 31 27 28 29 29 32 31 29 31 34 56 91 103 100 98 94 98 100 96 99 103 99 92 88 95 101 100 102 102 100 101 101 103 102 100 100 98 97 99 101 103 103 102 102 104 103 92 75 58 45 37 35 33 31 31 33 42 50
72 64 58 53 48 44 42 42 45 46 46 48 50 50 50 48 47 46 44 42 41 41 37 41 60 60 41 30 27 28 32 35 38 39 41 42 35 50 89 104 98 97 98 97 91 88 98 103 98 95 95 96 98 100 102 102 100 100 102 102 100 98 99 100 100 101 102 103 102 103 105 101 94 83 67 48 34 32 33 32 33 35 42 56 58
70 62 56 51 47 44 43 43 45 46 47 49 51 51 51 49 48 48 46 43 43 42 37 48 68 62 42 33 28 30 35 39 51 64 76 76 52 47 82 103 99 100 101 99 97 93 98 101 98 99 99 97 98 101 102 102 101 100 99 100 100 99 96 97 100 101 103 105 104 105 101 83 65 59 52 41 34 35 35 34 38 43 50 62 61
67 61 55 50 47 45 45 44 46 47 49 52 54 54 53 50 50 51 49 45 45 43 38 52 72 67 52 40 29 31 35 42 70 92 99 103 82 61 79 100 101 100 98 98 101 99 99 99 99 101 101 99 100 103 103 103 100 97 98 101 101 100 97 95 100 104 102 99 100 95 78 55 42 40 41 43 41 39 37 38 44 49 54 62 62
67 61 54 50 49 47 46 46 47 50 53 56 58 58 55 52 53 56 53 47 48 45 38 54 76 74 66 55 34 30 34 42 74 97 96 103 101 84 86 98 101 99 98 100 101 99 100 99 97 99 101 102 105 105 105 106 102 94 93 99 101 101 102 101 105 107 95 85 85 78 60 47 42 40 42 47 47 44 42 43 48 51 52 58 63
68 62 55 51 50 48 47 48 50 54 58 61 64 62 57 56 58 60 57 51 50 47 39 54 80 83 82 75 46 31 36 45 68 90 93 99 104 96 93 99 101 99 99 102 101 99 101 101 99 100 100 101 105 106 102 96 91 88 92 99 102 102 101 102 105 105 92 81 79 72 64 61 55 49 49 49 47 48 47 47 51 50 49 58 62
68 63 58 54 52 50 50 51 53 58 63 65 66 63 59 61 63 62 61 55 51 49 40 51 83 95 93 93 71 45 39 45 64 84 92 98 103 98 94 98 101 100 100 101 100 100 102 100 96 98 102 102 101 103 100 91 82 83 89 94 97 100 101 101 103 101 93 91 91 86 83 79 69 59 54 49 48 49 49 52 53 50 54 62 55
70 64 60 58 55 53 53 54 58 64 68 67 65 64 64 66 66 64 64 59 53 51 42 47 81 101 97 99 96 75 53 42 54 81 96 100 104 101 98 100 102 100 101 102 101 101 103 99 90 89 95 100 101 101 100 97 93 92 94 96 98 100 100 100 102 102 98 100 102 99 94 84 72 64 58 54 52 50 51 53 51 54 62 61 46
72 65 62 61 59 57 57 59 65 70 70 66 64 66 67 69 70 69 70 64 55 52 45 45 73 100 100 99 102 98 84 59 52 78 101 102 102 105 104 103 102 99 100 103 101 98 99 99 95 88 84 87 96 104 102 99 101 101 99 97 97 99 100 99 100 100 99 101 100 96 89 82 75 68 61 55 52 50 53 53 54 63 67 55 42
72 68 66 64 63 62 62 66 72 73 69 67 68 71 72 73 75 74 74 70 59 54 48 44 66 95 101 99 101 101 102 90 75 85 103 103 100 104 104 101 101 100 99 102 100 96 97 100 100 98 92 81 80 92 101 100 101 102 100 93 85 85 89 91 92 92 90 90 89 87 84 81 76 70 63 59 56 55 56 58 64 69 62 50 43
72 71 70 69 67 67 68 72 75 71 69 70 72 76 78 78 78 77 78 76 66 58 51 43 59 91 102 99 101 100 100 101 97 97 104 103 99 101 102 101 101 100 100 100 100 98 99 101 99 100 101 93 83 85 95 101 101 100 100 97 90 87 88 90 92 92 89 85 82 80 79 76 74 72 69 66 65 65 66 69 70 64 52 46 44
76 76 77 75 72 72 73 75 74 72 73 76 78 80 79 78 80 81 81 81 73 64 56 44 50 83 104 101 99 101 99 99 101 101 102 102 100 99 101 101 100 100 100 100 100 100 100 100 101 99 100 101 98 95 95 97 100 102 102 102 103 103 101 99 98 97 98 97 94 93 92 89 87 84 80 77 75 73 71 67 59 51 45 45 43
85 85 83 79 75 75 75 75 75 75 78 81 81 80 80 80 82 83 84 85 80 68 60 49 44 67 100 106 98 98 100 99 99 101 101 102 101 99 100 101 100 100 101 100 100 100 100 100 101 101 100 100 101 101 96 89 88 93 98 102 104 103 97 91 87 85 86 87 88 93 96 95 92 85 77 72 67 62 57 52 46 44 44 43 40
91 90 87 85 83 81 79 78 80 82 83 84 82 81 84 86 84 84 84 84 81 71 62 54 45 51 83 106 104 98 99 100 100 100 101 101 100 100 100 100 100 100 100 100 100 100 100 101 101 100 101 100 99 101 100 92 85 86 87 87 85 83 78 74 71 68 67 68 70 73 75 75 73 67 60 57 55 51 47 45 43 44 44 42 39
96 97 96 97 96 90 85 85 88 88 87 86 86 85 90 92 87 86 86 81 77 72 64 59 50 44 61 92 106 101 98 100 100 99 101 100 99 100 101 100 100 101 101 100 101 99 99 101 101 100 100 100 100 100 101 100 98 96 93 87 83 82 81 79 77 74 72 74 73 70 67 66 63 59 56 53 50 47 45 45 46 46 45 43 39
102 104 103 104 104 100 96 96 97 96 93 91 91 90 92 94 93 92 90 84 77 73 68 64 59 47 46 69 96 103 100 99 100 99 100 101 100 100 101 101 101 101 101 101 100 99 100 100 100 100 100 100 100 100 100 100 100 100 99 97 96 97 97 94 91 87 85 85 80 71 66 65 60 56 53 51 48 48 48 48 48 46 45 43 42
103 104 104 105 106 103 103 105 106 105 101 94 91 90 92 96 99 97 94 89 86 82 75 69 68 59 45 49 75 98 103 99 99 101 99 99 101 101 100 102 102 101 101 101 100 100 100 101 100 100 101 100 100 100 101 101 101 100 101 101 101 101 100 97 92 86 81 77 70 61 58 57 54 50 49 49 50 51 51 50 48 48 49 49 51
101 102 103 103 103 102 103 106 105 102 97 91 91 94 98 100 101 99 95 93 95 95 88 79 78 74 58 44 52 78 99 102 98 99 100 99 99 101 100 100 100 100 100 100 100 100 100 100 101 101 101 101 100 98 97 97 96 95 96 100 102 102 100 98 96 94 88 83 78 72 65 59 55 52 52 53 56 57 55 54 54 55 58 61 65
102 103 103 102 101 101 102 100 96 93 93 94 98 102 103 102 100 97 95 95 100 103 98 91 89 86 74 55 43 53 79 99 101 98 99 100 99 99 100 101 100 100 100 100 100 101 101 100 101 101 100 100 100 98 96 97 96 94 95 98 101 102 102 101 101 102 99 96 94 91 83 74 67 63 62 64 67 66 63 62 64 68 71 74 77
103 102 101 100 99 99 98 97 96 97 99 102 105 105 104 103 100 96 94 95 99 102 100 97 96 95 86 73 55 43 52 79 99 102 99 99 100 100 100 101 101 100 100 100 100 100 101 100 100 100 101 100 100 100 100 100 100 99 99 99 99 100 101 102 102 101 98 96 97 99 99 94 86 79 76 75 74 72 71 72 73 74 74 75 75
103 101 99 99 99 99 100 102 103 103 103 104 105 104 103 101 96 91 91 96 99 99 95 92 96 101 96 88 76 56 41 51 76 96 102 101 100 100 99 99 101 101 100 100 100 100 101 101 99 100 100 100 101 100 100 100 100 100 101 100 100 100 100 101 101 100 99 99 99 101 103 102 98 94 92 90 87 86 87 86 83 79 75 74 74
100 100 99 99 100 101 102 104 104 104 104 103 102 100 96 90 86 86 91 97 98 95 91 88 93 100 100 98 94 77 52 41 49 69 91 101 101 100 100 98 100 101 101 101 101 100 100 101 100 99 100 100 101 100 100 101 101 101 101 100 100 101 100 100 100 101 101 101 100 99 100 100 101 101 100 98 98 99 100 98 95 93 92 91 90
98 99 100 101 102 102 102 102 102 102 101 98 93 88 82 79 81 88 94 98 97 94 88 84 89 96 97 100 106 93 69 51 43 45 64 86 97 101 101 99 99 100 100 101 101 101 100 101 100 100 100 100 100 100 100 100 100 100 101 100 100 100 100 100 100 100 101 101 100 100 100 99 100 100 100 100 100 100 101 100 100 100 100 99 99
97 99 99 100 100 99 98 98 97 94 90 84 79 76 76 79 85 89 91 91 89 86 82 79 85 94 93 97 109 104 81 64 54 44 44 60 80 94 100 100 100 100 99 99 100 100 101 101 100 101 101 100 100 100 100 100 100 100 100 100 100 100 100 100 100 100 100 100 101 101 100 100 100 100 100 101 101 101 101 101 101 101 100 100 100
96 96 96 95 95 93 91 88 84 78 75 74 75 77 80 82 82 79 76 76 75 76 79 80 85 93 94 95 106 108 91 72 64 56 46 46 57 73 87 96 101 102 101 100 100 100 100 100 100 100 101 100 100 100 100 100 100 100 100 100 100 100 100 100 100 100 100 100 100 101 101 101 101 100 100 100 100 100 101 101 101 101 100 100 100
95 94 92 90 87 82 77 73 71 72 74 76 78 78 76 74 71 68 66 67 70 74 81 86 88 91 93 94 102 109 100 81 70 65 58 50 47 53 65 79 91 99 101 101 101 100 100 100 100 100 100 100 100 100 100 100 100 100 100 100 100 101 101 101 100 100 100 100 100 101 101 101 101 101 101 100 100 100 100 100 100 100 100 100 100
88 85 81 76 72 69 69 71 74 76 76 75 72 70 68 66 66 66 67 69 74 79 87 92 93 93 93 93 95 103 103 90 75 68 66 61 55 50 51 58 70 83 92 97 100 101 100 100 101 100 99 100 100 100 100 100 100 100 100 100 100 100 100 100 100 100 100 100 100 100 101 101 100 100 100 100 100 100 100 100 100 100 100 100 100
72 69 66 65 67 70 73 75 76 74 72 71 69 68 69 70 71 73 75 77 81 87 92 96 95 94 94 93 92 95 99 94 83 72 67 64 62 58 54 51 53 59 69 79 88 95 98 99 101 101 100 100 100 100 100 100 100 100 100 100 100 100 100 100 100 100 100 100 100 100 100 100 100 100 100 100 100 101 100 100 100 100 100 100 100
64 65 68 71 74 76 76 75 74 72 72 73 73 73 75 76 77 79 81 84 89 94 97 99 99 98 96 94 92 91 93 92 87 78 70 66 63 61 59 57 53 51 52 57 65 74 83 89 94 98 101 101 100 99 99 100 100 100 100 100 100 100 100 100 100 100 100 101 100 100 100 100 100 100 100 100 100 100 100 100 100 100 100 100 100
Wind_Speed
46 46 46 46 46 47 49 49 50 51 51 52 52 52 52 52 51 49 48 46 44 41 39 37 36 35 35 34 34 35 35 34 34 32 31 29 25 24 25 25 28 31 30 31 30 30 31 31 29 29 29 27 25 24 24 25 27 27 27 26 25 26 27 28 27 27 27 26 26 25 24 24 26 28 28 27 26 25 25 26 27 28 29 30 30
46 46 46 46 47 48 49 50 51 51 52 52 52 52 53 52 51 49 46 44 42 40 38 36 35 35 35 35 34 34 34 34 33 32 31 31 28 26 26 27 29 33 35 33 33 33 34 34 32 32 32 30 29 27 24 25 27 28 29 29 28 28 28 29 29 29 29 29 29 28 27 26 27 28 28 27 27 26 26 28 29 29 30 30 31
46 46 46 47 48 49 50 50 51 51 52 52 53 53 53 52 49 47 45 43 41 39 37 36 35 36 36 36 35 34 33 33 33 32 30 31 31 30 29 30 31 35 37 35 32 34 36 35 35 35 34 31 30 29 26 26 29 30 32 32 31 31 31 31 31 31 30 29 29 28 27 26 26 26 26 26 26 26 28 29 30 30 31 31 32
46 47 47 47 49 50 51 51 51 52 52 53 54 54 53 50 47 45 44 42 40 38 36 36 36 36 36 35 35 34 33 32 33 33 31 32 33 33 32 32 33 36 38 36 33 35 37 36 35 36 37 33 30 30 28 28 30 31 32 34 33 32 32 32 32 32 31 28 27 25 25 25 24 25 26 26 26 27 29 30 30 30 31 32 33
47 47 47 48 49 51 52 52 52 52 52 53 54 54 51 49 46 45 43 41 39 37 36 36 35 35 35 35 35 35 34 32 32 33 33 33 35 36 34 31 33 36 40 40 37 37 39 38 36 36 37 35 32 31 30 29 29 31 32 34 34 32 33 33 32 32 31 28 26 24 23 23 24 25 26 28 29 29 31 31 30 31 33 34 34
47 47 48 49 50 52 52 53 53 52 52 53 54 53 51 48 46 43 41 40 39 38 37 36 35 35 35 36 37 37 36 34 33 34 34 35 37 39 36 32 32 36 40 43 41 39 40 40 37 37 37 36 35 34 31 27 27 30 31 31 31 31 33 32 31 30 29 25 22 22 23 23 24 26 27 29 32 32 32 31 31 33 35 35 34
48 48 48 50 51 52 53 53 53 52 52 53 53 53 51 48 45 42 41 41 41 40 39 38 37 38 38 39 39 38 38 36 35 35 35 36 37 40 40 37 35 36 40 45 45 42 42 41 39 39 38 37 37 36 33 30 30 32 32 31 30 30 31 31 29 28 28 26 23 24 24 24 24 27 30 32 35 34 33 33 34 36 37 35 34
48 49 50 51 51 53 54 54 53 52 53 54 53 52 50 48 45 43 42 42 42 42 41 41 40 41 41 41 40 39 39 38 37 36 36 37 38 40 42 41 38 37 40 46 48 45 43 41 40 40 39 39 39 37 36 35 35 37 36 34 32 31 30 27 25 27 29 29 28 27 28 27 28 30 32 34 35 35 35 36 38 38 36 35 37
49 50 50 51 52 53 54 54 53 53 54 54 52 51 49 47 46 45 43 42 42 42 42 42 42 43 43 43 42 41 41 41 40 38 37 38 40 41 42 43 41 39 40 45 49 48 45 43 42 42 42 42 41 39 37 36 36 37 37 35 34 34 31 27 26 27 29 28 28 28 30 31 31 31 33 35 37 38 39 40 40 37 36 37 40
50 50 51 51 52 53 54 53 53 54 55 54 52 49 48 47 47 46 45 43 43 43 44 44 45 45 46 46 45 45 45 45 44 42 39 38 40 41 42 43 43 41 41 43 48 49 46 44 44 43 43 43 43 42 40 39 38 37 37 36 35 34 32 29 28 29 29 29 29 29 30 31 33 34 36 38 39 39 40 40 38 36 37 40 42
50 51 51 52 52 53 53 53 54 55 55 53 50 48 47 47 47 46 45 45 45 46 47 48 48 49 49 49 48 47 47 46 46 45 42 40 40 42 43 43 43 43 41 41 45 48 46 44 45 44 43 43 45 45 44 43 43 41 38 36 35 34 33 32 32 34 35 36 36 33 32 34 37 39 40 39 39 40 40 41 39 38 40 42 45
51 51 52 52 52 52 52 53 54 55 54 51 49 47 47 47 46 45 45 46 48 49 50 51 51 51 51 50 49 47 45 44 44 44 44 42 41 43 44 43 42 42 41 40 42 44 44 44 44 44 44 44 45 45 45 46 46 44 39 36 35 33 33 34 35 37 38 38 36 34 34 39 42 44 44 42 41 41 41 40 40 40 43 46 50
51 52 52 52 52 52 53 54 55 54 52 50 48 47 47 46 45 46 47 49 50 51 51 52 52 51 52 52 51 48 45 44 44 43 43 43 43 44 44 43 42 42 41 40 40 40 40 42 43 44 44 43 43 43 44 45 45 44 41 38 36 33 33 36 38 38 37 36 36 36 39 43 44 44 45 44 43 42 40 40 40 42 47 52 55
52 52 52 52 51 51 52 54 54 53 51 49 48 47 46 46 46 48 49 50 51 51 52 52 52 52 52 51 50 48 46 45 45 44 44 44 46 46 45 43 42 41 41 40 40 39 39 41 41 41 41 40 40 41 41 42 43 43 42 39 36 34 36 39 40 40 39 38 38 38 39 41 42 44 47 46 43 42 41 41 43 48 54 57 57
52 52 52 52 51 51 52 53 53 52 50 48 47 46 45 46 47 49 50 51 52 52 53 53 53 51 49 48 46 46 45 45 46 46 45 46 48 48 46 44 41 40 40 40 40 40 39 39 39 39 39 37 37 38 39 40 41 42 42 40 37 36 37 39 40 42 43 40 38 38 40 42 45 49 49 46 43 42 42 45 50 55 56 52 48
52 52 52 51 50 51 52 53 52 50 49 47 46 45 45 46 48 49 50 51 52 53 54 53 52 49 45 43 43 43 42 42 44 44 44 46 49 50 48 44 41 39 37 39 41 41 40 40 40 41 41 38 35 36 37 39 39 39 39 38 38 38 39 38 38 40 43 42 40 41 43 46 49 50 49 46 45 46 48 52 53 51 46 40 37
52 51 51 50 50 51 52 52 51 49 47 46 45 45 45 46 47 48 49 50 52 53 53 52 49 45 42 40 39 39 38 38 40 39 40 45 49 51 50 46 41 38 36 38 41 41 42 42 42 43 42 38 37 37 38 39 40 39 38 36 38 41 42 42 40 41 44 44 44 46 47 49 50 51 50 50 51 52 53 51 46 40 37 35 34
51 50 49 50 50 51 52 51 49 48 46 45 44 44 44 45 46 47 48 50 51 52 50 48 46 43 40 37 35 34 33 34 35 34 37 44 49 52 51 47 42 38 36 39 40 40 42 42 41 43 44 39 37 40 41 41 41 42 40 38 39 42 45 46 46 47 48 47 47 47 48 49 51 52 52 51 50 50 48 44 39 37 36 35 34
49 49 48 49 50 51 50 49 48 46 45 44 43 43 43 44 45 46 48 49 49 48 46 45 44 42 38 34 32 30 29 31 32 32 36 44 50 52 50 47 44 37 34 37 39 38 40 40 38 40 44 42 40 41 42 42 43 43 43 44 45 47 48 48 49 50 50 48 48 49 49 50 51 51 48 44 41 40 39 38 38 38 36 34 34
48 48 48 49 50 50 50 48 47 45 43 42 42 42 43 43 44 46 47 47 47 46 44 42 41 39 36 32 29 27 27 28 29 31 37 44 49 52 50 47 43 37 34 37 36 34 36 39 37 36 40 43 43 42 43 44 45 45 46 48 50 50 51 50 50 51 50 49 50 49 48 48 46 43 40 38 37 37 37 38 40 39 37 35 35
48 47 48 49 50 50 48 47 45 44 42 41 41 41 42 43 44 45 45 45 45 44 41 39 38 36 33 29 26 24 24 26 27 31 37 43 48 51 50 46 41 37 37 38 35 30 32 37 38 37 39 42 44 45 44 45 46 48 49 50 51 52 51 51 52 52 51 50 51 48 44 42 40 40 40 40 40 40 40 40 41 40 37 36 35
47 48 49 50 49 48 47 46 44 43 41 40 40 41 41 42 43 43 43 43 43 42 39 37 34 32 30 27 23 21 21 23 25 30 36 41 46 50 49 44 40 36 36 38 35 30 29 33 36 39 42 42 43 45 46 47 49 50 51 52 54 55 54 54 55 54 53 53 52 50 47 45 43 43 43 43 43 43 42 42 41 39 38 37 35
47 48 48 48 48 47 46 45 43 41 40 40 40 40 41 42 42 41 42 42 41 40 37 34 31 29 27 23 19 17 19 21 25 29 32 37 44 48 47 43 39 35 34 36 37 33 31 33 35 41 46 46 44 44 45 49 54 55 54 53 55 56 55 56 55 53 52 51 50 50 49 48 47 46 46 46 46 46 44 42 40 39 38 36 34
46 46 46 46 47 47 46 44 42 40 40 39 39 40 41 41 40 40 41 40 39 38 35 30 27 26 23 20 17 16 18 22 26 30 32 36 43 46 46 43 38 35 34 35 37 37 35 34 37 42 45 43 44 46 46 48 54 59 60 58 56 55 53 53 52 51 50 50 50 50 49 49 49 49 49 48 47 46 45 43 41 39 37 34 33
45 45 45 46 47 46 45 42 40 39 39 39 40 41 40 40 39 39 39 39 37 36 32 27 24 22 20 18 17 17 21 25 28 31 32 35 41 44 45 43 38 36 37 35 36 39 38 37 39 42 42 38 39 42 45 48 51 56 60 62 60 57 56 56 56 56 55 53 52 51 50 50 50 50 49 48 48 47 46 43 40 40 38 35 35
45 45 46 46 46 45 43 40 39 39 39 39 40 40 40 39 37 38 39 38 36 34 31 24 21 20 18 18 18 20 24 27 30 32 32 32 37 42 44 44 40 38 38 35 34 38 40 41 42 43 44 42 41 42 46 49 51 52 55 60 63 63 62 63 63 62 59 56 54 52 51 51 50 50 50 50 50 49 46 43 39 39 39 37 37
45 45 46 46 45 43 40 39 39 39 39 40 40 40 39 38 37 37 39 37 35 33 30 22 20 19 17 18 19 21 25 28 30 33 33 31 34 39 43 45 40 37 37 35 33 35 37 38 40 42 44 46 49 52 53 52 53 54 54 56 60 62 63 63 62 62 60 57 55 54 53 52 51 51 51 51 51 48 46 43 40 40 40 39 40
45 45 45 44 43 41 39 39 39 39 40 40 40 40 39 38 37 38 39 37 34 32 29 22 20 20 18 19 21 22 26 28 30 33 33 32 32 37 44 46 40 35 36 36 35 35 36 35 35 38 42 46 51 55 57 56 56 56 56 57 58 59 60 60 60 61 60 58 56 56 55 54 53 52 52 52 51 48 46 44 43 43 42 42 43
45 44 44 43 42 40 40 40 40 40 41 40 40 40 40 38 38 38 38 37 33 31 29 21 20 22 20 21 22 23 27 29 30 31 31 32 32 35 43 46 41 37 37 37 37 37 39 41 39 38 41 46 50 52 54 54 54 55 56 58 59 60 61 62 62 62 61 59 58 57 56 54 53 52 52 52 52 50 49 47 45 45 45 45 46
44 43 42 42 41 41 41 41 41 41 41 41 40 40 40 39 39 39 38 37 33 30 28 22 21 24 22 22 24 24 26 29 30 30 28 29 31 34 41 44 43 41 40 39 39 36 37 43 46 46 46 47 47 49 50 50 50 51 54 55 57 60 61 62 62 61 60 59 58 57 56 55 54 53 53 53 53 53 51 49 48 48 47 48 49
43 42 42 41 41 42 42 42 42 42 42 41 40 40 40 40 40 40 38 37 34 30 28 23 21 25 24 25 27 25 25 27 29 30 28 28 31 35 40 43 42 41 39 39 40 38 37 39 43 49 53 53 51 49 48 48 49 50 52 53 54 55 57 57 57 57 57 57 57 57 57 56 55 54 54 54 54 54 52 51 51 50 50 52 52
43 42 42 42 42 43 43 42 43 43 43 42 41 41 41 41 41 41 39 37 35 31 28 24 22 27 27 27 29 28 26 26 28 30 30 30 31 35 39 42 41 39 37 36 37 39 40 41 42 46 51 54 55 54 50 49 50 50 51 53 54 55 56 56 56 56 56 56 57 57 56 56 55 55 55 55 55 55 54 54 53 53 54 55 55
43 42 42 43 43 43 43 43 44 44 43 42 42 42 42 42 42 42 40 38 36 32 28 24 22 28 30 29 31 31 30 29 29 31 32 32 32 34 37 40 41 39 38 37 37 38 42 45 47 47 47 49 53 54 53 51 51 50 50 51 53 54 55 56 56 56 56 57 57 57 57 56 56 56 56 56 56 57 56 56 56 57 58 58 56
44 43 43 43 43 43 44 44 44 44 43 43 43 43 43 43 43 42 41 40 38 35 31 25 22 27 33 33 33 34 34 33 32 33 34 35 35 35 37 40 42 41 40 40 41 42 43 45 48 48 49 50 51 53 54 54 54 54 53 53 54 55 55 56 56 56 56 57 57 58 57 57 57 57 58 58 58 59 59 59 60 60 61 60 58
45 44 44 44 44 44 45 45 44 45 45 45 45 45 44 44 44 43 43 42 40 37 33 28 24 26 33 36 35 36 37 37 37 36 37 38 39 38 39 41 44 45 44 44 45 45 44 45 47 48 49 50 51 53 56 56 56 57 57 57 58 58 59 59 59 59 59 60 60 60 59 59 59 60 61 61 62 62 62 63 63 63 62 61 58
47 46 46 45 45 45 45 45 46 46 47 47 47 46 46 46 45 45 44 44 42 40 36 32 26 25 32 38 38 38 40 40 40 40 40 42 43 43 44 45 47 49 50 50 50 49 48 47 48 49 49 50 51 53 54 56 57 58 59 60 60 60 61 61 61 62 63 63 64 63 63 63 64 65 65 65 65 66 66 66 65 64 62 60 58
49 49 48 47 47 47 47 48 48 48 49 49 49 48 48 48 48 47 47 46 44 42 39 36 31 26 30 37 41 41 42 43 43 44 44 45 46 46 48 50 51 53 55 56 55 54 53 52 52 52 51 52 53 53 53 54 55 56 58 59 60 61 61 62 64 65 66 67 68 67 66 67 68 68 68 68 68 68 67 67 65 63 62 61 60
50 50 50 49 49 49 50 50 51 51 51 51 51 50 50 50 50 50 50 48 47 45 42 39 36 31 29 35 42 44 45 46 47 47 48 49 49 49 50 51 53 55 57 58 59 59 58 57 56 55 54 53 53 54 54 54 54 55 57 58 59 60 62 64 66 68 69 70 72 71 70 70 70 70 69 68 68 68 68 67 65 63 63 63 63
52 52 52 52 52 52 52 53 53 53 53 53 53 52 52 52 53 53 52 50 49 48 46 43 40 37 32 32 40 46 47 48 50 51 51 52 53 53 54 54 55 56 57 58 59 60 61 61 60 59 59 58 57 58 58 58 58 57 57 58 60 62 64 66 69 72 73 74 76 75 73 72 72 70 69 68 68 68 68 67 66 65 65 66 66
54 54 54 54 54 54 55 55 56 56 56 55 55 55 55 55 55 55 55 53 51 50 49 47 44 42 38 33 36 44 49 50 51 53 55 55 56 57 58 58 59 59 60 60 60 61 61 62 63 62 62 63 64 64 64 64 64 63 62 61 61 61 63 65 67 70 73 74 75 75 74 73 72 71 69 68 68 69 69 68 68 68 68 68 69
56 56 56 56 56 57 57 58 58 58 58 57 57 57 57 58 58 58 57 56 54 53 52 50 47 45 43 39 36 40 47 51 52 54 56 58 60 60 60 61 62 62 62 62 63 64 64 64 64 65 65 65 66 67 67 67 67 67 66 67 65 63 62 62 63 66 70 73 74 75 75 75 74 72 70 69 70 72 72 71 71 71 71 71 72
59 59 59 59 59 59 60 60 60 59 59 59 59 60 60 60 61 60 59 58 57 55 54 52 50 47 46 44 40 39 44 50 54 55 57 59 61 63 63 63 63 64 64 64 64 66 67 67 67 66 66 66 66 66 66 66 66 66 66 67 67 66 66 66 68 70 73 74 75 75 76 76 76 76 74 73 74 75 75 75 75 75 74 74 75
61 61 61 61 61 61 61 61 61 61 61 61 61 62 63 63 63 63 62 61 59 58 56 54 51 49 47 47 46 43 43 47 52 56 58 59 61 63 63 64 64 65 66 67 67 67 68 69 70 69 69 68 68 68 67 67 66 66 66 66 66 67 69 71 73 75 76 75 75 75 76 77 78 78 78 78 78 78 78 78 79 79 78 77 77
62 62 63 62 62 62 62 62 62 63 63 63 64 65 66 66 66 65 64 63 61 59 57 55 52 50 48 48 49 48 46 45 49 54 58 60 61 63 64 64 64 64 65 67 68 69 69 70 70 71 71 71 71 71 71 71 70 69 68 68 68 69 71 72 74 75 76 77 77 77 77 77 78 79 79 80 79 79 79 80 80 80 79 78 78
63 63 64 64 64 64 64 64 64 65 66 67 67 68 68 68 68 66 65 63 62 60 58 56 53 50 48 49 51 52 50 48 48 51 56 59 62 63 65 65 65 66 67 67 68 69 71 71 71 71 71 72 72 72 72 73 73 73 72 71 71 71 72 74 75 76 77 78 78 78 78 78 78 79 80 80 81 81 81 81 80 80 79 79 80
65 65 65 65 65 65 65 66 67 68 69 70 70 70 70 68 67 65 63 62 61 60 58 56 53 51 49 50 52 54 54 52 51 51 53 58 62 64 66 67 67 68 69 70 71 72 72 73 73 73 72 72 72 72 72 73 73 74 74 74 75 75 76 77 78 79 80 81 81 81 81 81 82 82 82 82 82 83 82 82 82 82 83 83 84
66 66 67 66 66 67 67 69 70 70 71 71 70 69 68 66 65 63 62 60 59 59 57 56 53 52 51 51 54 56 57 56 55 54 54 56 60 64 66 68 69 70 71 72 73 75 76 76 76 75 75 75 74 73 73 73 74 75 76 76 78 79 80 81 82 83 83 84 84 84 85 85 85 86 86 85 84 84 84 85 85 86 87 87 87
67 68 68 68 68 69 70 70 70 70 69 68 67 66 65 64 62 61 60 58 57 57 57 56 55 53 52 53 55 58 59 59 58 57 57 57 58 62 65 68 70 72 73 74 74 76 78 79 80 80 79 79 78 77 76 76 76 77 78 79 81 82 84 85 86 87 87 88 88 88 89 89 88 88 88 88 87 87 87 88 88 89 89 89 90
68 69 70 70 70 70 70 69 68 66 65 65 64 63 63 62 61 60 59 58 57 57 57 57 56 55 54 55 56 59 62 63 62 60 60 60 60 61 63 67 70 73 75 76 77 77 78 79 81 83 84 83 83 82 82 81 81 80 81 82 83 84 86 87 88 89 90 90 91 91 91 91 90 90 90 90 90 90 90 90 91 91 91 91 91
70 70 70 70 69 67 66 65 64 63 63 63 62 62 61 61 60 60 59 59 58 58 58 57 57 57 56 56 57 59 62 64 65 64 63 63 63 63 64 65 68 71 74 77 78 80 80 81 81 83 85 87 87 87 87 86 86 86 85 84 84 85 86 87 88 90 90 91 92 92 92 92 91 91 91 91 91 91 92 92 92 93 93 93 94
69 68 67 66 65 64 63 62 62 62 62 62 62 62 62 62 62 61 60 60 59 59 59 58 58 58 58 58 59 60 62 64 66 67 67 66 66 66 67 67 68 70 73 75 78 80 82 84 84 84 85 86 88 90 91 91 92 91 90 89 88 88 87 87 88 89 90 91 93 94 94 94 94 94 94 94 94 94 95 95 96 96 96 97 97
Wind_Direction
264 266 267 270 273 276 278 281 284 287 290 292 293 293 294 293 291 290 288 286 282 279 276 273 272 270 268 267 266 267 267 267 265 263 258 248 243 240 231 227 219 214 221 226 224 220 218 222 228 233 235 232 233 237 243 254 259 255 254 258 259 260 263 266 268 271 276 282 287 285 275 267 268 272 277 281 284 285 285 286 286 288 291 294 298
264 266 269 271 274 276 279 282 286 289 291 292 293 294 294 293 292 290 289 286 283 279 275 272 270 267 266 264 264 265 266 267 263 259 255 246 238 234 231 228 221 216 221 227 225 220 218 219 223 229 234 232 232 236 241 248 252 249 248 250 252 255 259 262 266 270 275 283 285 282 275 270 270 274 277 280 283 285 287 287 286 287 290 293 296
265 267 269 272 274 277 280 284 287 290 292 292 294 295 295 294 292 290 288 284 281 277 273 269 265 263 263 263 262 263 264 265 263 258 251 243 235 232 231 228 223 218 222 227 226 223 220 219 220 224 231 234 234 236 238 242 247 247 245 246 249 253 257 259 263 268 275 283 285 281 276 274 275 277 279 281 283 285 286 286 285 285 287 291 295
265 267 270 273 275 278 281 284 287 290 292 293 295 296 295 293 291 289 286 282 278 273 268 264 262 262 262 262 262 262 263 262 262 259 251 240 234 233 231 230 227 221 221 225 226 226 224 222 222 223 228 234 236 236 235 237 245 247 245 246 248 252 257 259 262 269 278 284 284 283 281 277 278 281 283 283 282 282 283 284 282 281 285 289 294
265 268 271 274 276 279 282 285 287 290 292 295 296 295 293 290 288 286 284 280 275 269 265 263 262 262 262 262 263 263 262 259 258 258 253 240 234 233 231 233 233 225 220 223 225 227 227 226 224 223 226 231 235 237 237 239 245 247 247 249 251 254 259 262 267 273 278 281 282 284 284 283 285 286 285 284 281 280 281 280 278 279 284 290 294
266 268 271 274 276 279 282 285 288 291 294 295 295 293 290 288 287 285 281 276 271 266 264 263 264 265 265 264 264 264 263 259 253 254 254 243 234 232 231 232 233 227 221 221 223 225 227 227 225 224 226 230 234 238 239 241 245 247 249 253 257 259 262 267 275 277 275 277 278 278 281 285 289 287 283 281 279 279 277 275 276 282 287 292 294
266 269 272 274 276 279 282 285 288 291 294 294 293 290 288 287 285 282 279 274 269 267 265 265 266 267 267 267 266 264 262 259 253 251 252 247 237 232 231 232 232 228 222 221 222 223 226 227 226 226 227 231 236 239 239 239 241 246 251 258 261 264 269 275 275 271 269 270 270 271 275 281 283 280 276 275 275 274 273 274 281 287 289 291 293
266 269 271 274 276 279 282 286 289 292 293 293 291 287 285 284 283 281 278 275 272 271 270 270 269 269 269 269 266 264 261 259 254 250 250 248 241 234 231 232 232 229 222 219 221 223 224 225 227 227 226 231 236 240 240 240 243 247 252 257 260 266 276 277 268 263 263 267 269 271 273 278 280 275 272 271 272 273 276 281 286 288 288 290 292
266 269 271 274 276 280 283 287 290 292 292 291 288 285 283 282 281 280 279 277 275 274 274 273 272 271 270 269 268 265 263 259 255 250 247 247 244 237 231 231 231 230 224 219 220 223 223 224 227 228 226 229 234 237 240 242 245 247 251 256 259 266 271 265 257 257 259 263 269 274 276 277 277 272 270 272 274 279 283 286 287 286 286 288 290
266 269 271 273 277 280 284 287 290 291 291 290 287 283 281 279 279 279 279 278 276 275 275 274 274 273 272 272 271 269 266 262 256 250 245 244 244 239 232 229 230 229 225 221 220 222 225 226 228 229 229 232 235 236 239 241 244 248 252 257 260 263 263 257 251 251 254 260 269 279 280 275 274 274 274 276 279 284 288 288 286 283 285 288 290
266 268 270 274 277 281 285 287 289 291 291 289 285 282 279 279 280 280 279 277 276 276 277 277 277 277 276 275 273 270 267 262 256 250 243 240 241 238 232 227 227 227 225 222 221 222 225 227 230 231 231 234 237 238 240 242 245 249 254 257 258 259 258 254 250 250 254 260 269 278 276 271 275 279 279 280 281 285 288 287 285 282 284 288 290
266 268 271 274 278 282 284 287 289 291 290 287 283 280 279 279 280 280 279 278 278 279 280 280 280 280 279 278 275 271 267 261 254 247 241 237 238 236 230 225 224 223 222 222 221 222 224 228 231 233 232 235 240 241 241 243 246 249 251 254 256 256 252 249 251 254 255 260 268 272 270 270 275 278 281 282 282 284 285 283 281 281 285 291 293
266 268 272 275 279 281 284 287 290 290 288 285 282 280 279 280 280 280 280 280 281 281 282 282 282 282 282 281 278 272 266 259 251 242 236 234 235 232 228 224 220 218 218 220 220 220 223 226 231 234 234 235 241 243 242 244 246 247 249 252 253 252 248 247 250 252 254 259 266 268 270 273 275 277 282 284 283 284 283 280 279 281 288 294 296
266 269 272 276 279 282 285 288 289 288 286 284 282 280 280 281 281 282 282 282 283 284 285 285 286 286 286 284 280 273 265 257 250 241 234 231 231 228 223 220 217 214 216 218 218 217 220 224 229 233 235 237 242 244 244 245 246 247 248 250 251 250 248 248 249 250 252 259 266 269 270 271 273 279 284 285 283 283 281 280 280 284 290 294 294
266 269 273 276 279 283 286 288 287 286 284 282 281 281 281 282 283 283 284 285 286 288 289 291 291 291 289 284 279 273 265 257 251 244 237 231 227 223 218 215 213 211 214 217 216 214 216 221 226 229 231 235 241 244 245 246 248 249 249 248 248 248 247 249 249 250 253 258 263 264 264 267 275 282 284 284 282 281 281 282 284 287 291 293 294
266 269 273 277 280 283 285 286 285 283 282 281 280 281 282 283 283 284 286 288 290 292 294 295 295 293 289 283 277 272 265 258 251 245 237 229 223 219 214 211 209 209 215 220 218 214 213 217 222 225 227 230 237 242 243 242 244 246 248 246 244 243 244 246 248 251 255 258 260 262 265 271 277 280 281 280 280 280 281 284 287 290 292 293 296
266 270 274 277 281 283 285 285 283 281 280 280 280 282 282 283 285 287 289 291 293 295 296 298 297 295 291 286 279 272 265 256 249 242 232 223 218 216 211 207 206 208 217 223 221 217 215 217 222 225 226 228 235 239 240 239 239 241 245 244 240 239 241 243 246 253 259 262 264 267 271 275 277 278 279 278 277 279 282 287 289 290 292 294 297
267 271 275 278 281 283 283 283 281 280 279 280 281 282 283 285 287 289 290 292 294 296 299 301 300 297 294 289 282 274 264 253 245 236 225 217 214 212 208 203 203 207 217 223 222 221 220 220 223 226 226 227 234 239 240 239 239 239 241 241 238 238 241 243 248 255 260 265 269 271 272 273 273 274 275 276 278 281 284 285 286 289 293 294 296
268 272 275 278 280 281 281 280 279 279 279 280 282 283 285 287 288 290 291 293 295 298 302 304 302 299 295 291 285 276 262 249 239 228 218 213 211 209 204 201 203 207 215 221 222 225 226 224 224 226 226 227 232 239 242 243 243 242 241 241 240 241 244 248 253 257 261 265 268 269 269 268 267 269 273 278 283 286 284 282 285 290 294 294 295
268 271 274 277 278 279 279 278 278 278 279 281 283 284 286 287 288 290 292 295 299 303 306 306 302 299 295 292 286 274 259 245 233 220 212 210 208 205 201 200 202 207 213 217 221 228 232 231 228 227 228 230 234 239 244 246 246 246 245 244 244 245 249 252 255 258 262 265 265 266 266 265 265 269 274 280 284 286 284 283 286 290 291 292 294
267 271 273 275 277 278 277 277 277 278 280 281 283 284 286 287 288 291 294 298 303 306 308 307 302 297 293 290 283 270 255 240 226 216 209 207 205 203 200 199 202 208 212 215 220 226 232 234 233 232 233 236 238 240 244 246 245 245 246 246 247 249 251 253 255 258 262 263 263 264 265 266 268 272 275 278 282 284 284 284 286 289 290 291 293
267 270 272 275 277 277 277 277 277 279 280 282 283 284 285 287 289 292 297 301 305 308 310 307 300 293 289 285 276 263 248 231 219 212 207 204 204 203 200 198 201 209 213 216 220 224 229 231 230 231 233 235 240 243 243 242 243 244 246 247 249 251 253 256 257 258 259 260 260 262 265 268 271 273 275 278 281 283 283 283 285 288 290 291 292
267 270 273 275 275 276 276 277 278 279 281 282 283 284 286 288 291 295 299 304 307 309 311 307 297 288 283 277 266 251 235 219 211 207 203 203 205 204 200 197 200 207 211 218 223 225 224 222 221 228 232 234 239 243 245 242 241 242 244 246 250 252 254 255 255 255 256 257 260 262 266 269 271 273 275 278 281 282 282 283 286 290 291 289 288
267 270 272 273 274 275 276 277 278 280 281 282 283 284 287 289 293 297 301 305 308 310 311 305 292 282 275 266 252 235 220 210 205 199 197 203 207 206 201 196 197 204 209 215 221 224 222 217 220 229 233 235 237 240 245 244 241 239 240 243 246 249 250 250 250 254 257 260 262 264 266 269 271 274 276 278 281 282 282 283 287 290 289 284 283
267 269 271 273 274 276 277 278 279 280 280 282 283 286 289 291 295 298 302 306 308 310 311 302 285 272 263 254 241 224 213 208 202 195 195 203 208 206 202 195 195 204 209 211 215 218 221 221 224 230 233 234 236 237 240 243 242 241 241 241 242 245 247 249 253 259 262 263 264 266 268 271 274 276 277 278 281 282 282 284 286 287 286 282 283
266 269 271 273 275 277 278 278 279 279 280 282 284 287 289 292 296 299 302 306 308 310 311 299 275 259 251 244 234 222 213 208 203 198 198 203 206 205 202 197 198 204 209 214 217 218 221 226 230 234 238 239 239 238 240 243 244 244 243 242 243 245 248 252 256 260 262 263 265 267 269 273 275 277 278 279 280 281 282 283 283 283 282 282 283
267 269 272 274 276 277 277 277 277 278 280 283 285 288 290 293 297 300 303 306 308 310 311 295 263 246 241 237 230 221 214 211 208 205 203 203 205 204 201 199 201 206 210 216 221 219 221 226 229 233 237 240 241 242 244 246 246 246 245 245 245 247 249 252 255 257 260 262 265 266 269 272 275 277 278 279 279 280 281 281 280 279 279 280 282
267 270 273 275 276 277 276 276 276 278 280 283 285 288 290 293 297 300 303 306 308 310 310 292 253 235 232 232 228 220 214 212 211 210 209 207 207 205 202 200 203 209 214 220 225 224 221 222 225 228 230 235 239 242 246 248 248 248 248 248 248 249 251 253 255 257 259 262 263 265 268 271 273 275 277 277 278 279 279 279 278 278 279 279 281
268 271 273 275 276 275 274 274 275 277 280 282 285 287 290 293 297 299 302 304 306 308 309 291 246 227 225 228 227 221 215 213 212 212 212 211 210 208 204 203 206 212 218 225 231 233 229 225 225 228 230 234 238 242 246 249 249 250 251 250 251 252 253 255 257 259 260 262 263 266 269 271 272 274 275 276 277 278 278 277 276 277 278 279 282
269 271 273 275 274 273 273 273 275 277 279 282 284 287 291 293 296 298 300 303 305 306 308 292 245 223 220 224 226 223 219 216 213 212 212 211 211 209 207 206 210 216 222 228 233 237 239 235 233 234 235 236 239 242 245 247 248 248 249 250 251 253 255 256 258 259 260 262 264 266 269 270 271 273 274 275 276 277 276 275 275 276 277 279 283
269 271 273 274 273 272 272 273 275 277 279 282 285 288 291 293 295 298 299 302 303 303 305 294 250 223 217 220 223 224 222 220 216 213 211 210 209 208 207 208 213 219 225 232 235 236 240 242 241 240 240 239 241 244 246 248 248 248 248 249 251 253 254 256 258 259 261 262 264 266 268 269 270 271 272 273 274 274 274 273 274 274 276 279 284
268 271 272 273 272 272 273 274 275 277 279 282 285 287 290 292 294 297 299 300 301 300 302 294 257 226 217 219 221 222 222 221 218 214 212 212 211 209 208 210 215 221 225 231 235 233 235 238 240 241 242 243 244 246 248 249 249 249 249 250 252 254 256 258 260 262 263 264 265 266 267 268 269 270 271 271 272 272 272 272 273 274 277 281 285
268 270 271 273 273 273 273 273 275 277 280 283 285 287 290 292 294 297 298 299 300 298 297 293 264 233 221 218 219 220 221 219 218 216 214 214 214 213 212 213 217 222 225 229 231 230 232 236 239 240 243 244 245 247 248 248 248 249 250 252 254 255 257 259 260 262 264 265 266 267 267 268 268 269 269 270 270 271 271 272 273 276 280 283 285
268 270 271 272 273 272 272 273 275 278 280 282 285 287 289 292 294 296 297 298 298 295 293 291 270 239 226 221 218 217 219 219 218 217 216 216 217 216 216 217 218 220 223 226 228 228 230 235 239 240 242 243 244 245 247 248 249 251 253 254 255 256 257 258 259 261 262 263 264 265 266 266 266 267 268 269 270 271 272 274 277 280 283 284 284
268 269 270 271 271 271 272 274 276 278 280 282 284 286 289 292 294 296 297 296 295 293 291 289 276 247 230 225 220 217 217 219 219 218 217 218 219 219 219 220 220 221 222 224 227 228 231 235 239 241 242 244 245 246 247 249 251 253 255 256 257 258 259 260 261 261 262 262 262 262 263 263 265 266 268 270 272 274 276 278 280 282 283 283 282
267 268 269 270 271 272 273 274 275 277 279 281 284 287 289 291 294 295 295 294 292 292 290 287 280 257 236 228 224 219 216 217 219 219 219 219 220 220 221 221 222 222 224 225 226 228 231 235 239 241 243 245 247 248 249 250 251 253 255 257 259 260 262 263 264 264 264 264 264 264 265 266 267 269 271 273 275 276 278 279 280 281 281 281 281
267 268 269 270 271 271 272 274 275 277 279 281 284 286 288 289 292 294 294 293 291 290 289 287 282 267 243 232 227 222 218 217 218 219 220 221 221 221 222 222 223 224 226 228 229 230 232 236 240 242 244 246 248 250 252 253 253 253 255 257 259 261 262 263 264 264 265 265 265 266 267 268 269 271 272 273 275 276 277 278 278 279 279 280 280
267 268 269 269 270 271 272 274 275 277 279 281 283 285 286 288 290 292 293 292 291 289 289 287 284 275 255 237 230 226 221 218 218 218 220 222 222 222 222 223 225 227 229 230 232 233 235 238 240 242 244 246 247 249 250 252 253 254 256 257 259 260 261 262 263 264 264 265 266 266 267 268 269 270 272 273 275 276 276 277 278 278 279 280 281
266 268 269 269 270 272 273 274 275 277 279 281 282 283 284 286 288 290 291 291 290 289 288 288 286 281 268 247 234 229 225 221 219 218 219 222 223 224 224 226 228 230 232 233 235 236 238 240 242 244 245 246 247 249 250 251 252 254 255 257 259 260 261 263 264 265 266 267 268 268 269 269 269 271 272 273 275 275 276 277 278 279 280 281 281
266 267 268 269 270 272 273 274 275 276 278 280 282 282 283 284 287 289 290 290 289 288 287 287 286 283 275 260 242 233 229 224 221 220 219 220 223 225 227 229 231 233 234 236 237 238 239 241 243 245 247 248 250 251 252 253 254 254 255 257 259 261 263 264 266 267 268 268 269 270 270 271 271 272 274 275 275 275 276 277 278 279 280 281 281
266 267 268 269 270 271 272 273 275 276 278 280 280 281 282 284 286 288 288 288 287 286 286 285 284 282 277 268 253 241 233 228 224 222 221 221 222 224 227 230 231 233 234 236 238 239 240 241 243 245 247 249 250 252 253 254 255 256 256 258 259 259 260 261 261 262 264 266 268 270 271 273 274 275 275 275 275 275 276 278 279 280 280 280 281
266 267 268 269 270 271 273 274 275 277 278 279 279 280 282 284 285 286 286 286 285 284 283 282 282 281 276 270 261 251 241 233 228 225 223 223 223 224 227 230 233 234 234 235 237 240 241 242 243 244 246 247 248 250 251 253 254 255 256 257 258 257 256 256 256 257 261 264 267 269 270 272 274 275 275 275 275 276 277 278 279 279 279 279 280
266 267 269 270 271 272 273 274 275 276 277 278 279 280 282 283 284 284 284 284 283 281 280 280 279 278 273 267 262 257 250 241 234 229 226 225 225 225 227 229 233 235 236 236 237 239 241 242 243 244 245 246 247 248 250 251 252 253 254 254 254 254 254 254 255 258 261 263 265 266 268 270 272 274 275 276 277 278 279 279 280 280 281 281 282
267 269 270 271 272 272 273 274 276 276 277 278 279 280 281 282 283 283 282 282 281 280 279 278 277 275 269 262 259 258 255 249 241 235 231 229 228 228 228 229 232 234 236 237 238 240 241 243 244 244 245 246 248 249 250 251 251 252 253 252 252 251 252 253 254 256 259 261 262 264 265 267 270 272 274 275 277 278 279 280 281 282 283 283 283
268 269 270 271 272 273 274 275 276 277 278 279 280 280 281 281 281 281 280 280 279 278 278 277 276 273 266 259 255 255 255 254 249 242 237 233 232 231 230 230 231 233 235 237 238 240 241 243 244 245 245 246 248 249 250 251 252 252 252 252 251 250 250 251 253 254 256 258 260 261 263 264 266 268 271 273 275 276 277 278 279 280 280 281 281
269 270 270 271 272 273 275 276 277 278 279 279 280 280 280 279 279 279 278 277 277 277 276 275 274 271 265 258 253 251 253 254 253 249 243 239 236 234 233 232 232 233 233 234 236 237 239 241 243 244 244 245 246 247 248 249 250 251 251 251 250 250 249 250 251 253 254 256 258 260 262 263 264 266 268 270 272 274 275 276 276 276 277 278 279
269 270 270 272 273 274 275 276 277 278 278 278 278 278 278 277 277 276 276 276 275 275 274 273 271 268 264 258 252 250 250 251 252 252 250 245 241 238 236 235 234 234 234 234 235 235 236 238 240 242 243 244 244 245 245 246 247 248 248 249 249 250 250 251 251 253 254 256 258 260 261 263 265 266 267 268 269 270 271 272 273 274 275 277 278
269 270 271 273 274 275 276 276 276 276 276 276 276 276 276 275 275 275 275 274 273 273 272 271 270 267 263 258 253 250 249 250 250 251 251 250 247 244 241 239 238 237 236 236 236 236 236 237 238 239 241 242 243 243 243 244 245 246 247 248 248 249 251 252 253 254 256 257 258 260 261 263 264 265 266 267 267 268 268 269 270 272 274 275 277
269 271 272 273 274 274 274 274 274 274 274 274 274 274 274 275 275 274 274 273 272 272 271 270 269 267 264 260 255 251 250 250 250 250 251 251 251 249 247 244 242 241 240 239 238 238 238 238 238 239 239 240 241 242 242 242 243 245 246 247 248 249 251 252 253 254 256 257 259 260 261 262 263 264 265 265 266 267 268 268 270 271 272 273 274
271 272 273 273 273 273 272 272 272 272 272 273 273 273 274 274 274 274 273 273 272 271 270 269 268 266 264 261 258 254 251 251 251 251 251 252 252 252 251 249 247 245 244 243 242 241 240 240 240 240 240 240 241 241 242 242 242 243 244 246 247 248 250 251 253 254 255 256 257 258 259 260 261 262 263 264 265 266 267 268 269 270 271 272 273
271 271 271 271 271 271 271 271 271 271 272 272 272 273 273 273 273 273 273 273 272 271 270 269 268 266 265 263 260 257 255 253 252 253 253 253 253 253 253 252 252 251 249 247 246 245 244 244 243 243 243 242 242 242 242 242 243 243 244 245 246 247 248 249 251 252 254 255 257 258 259 260 261 261 263 264 265 265 266 267 268 269 270 271 271